[[{"header":{"parameterUnit":"m.s-1","parameterCategory":1,"la1":30.2992,"la2":30.254,"lo1":-89.0895,"lo2":-89.0443,"dy":0.0025,"dx":0.0025,"nx":19,"ny":19,"refTime":"2026-04-21T21:00:00:Z","depth":0,"parameterNumber":2,"parameterNumberName":"U-component_of_WINDS"},"data":[0,0,0,-3.7779,-3.7781,-3.7876,-3.7876,-3.8008,-3.8009,0,0,0,0,0,0,0,0,0,0,0,-3.7759,-3.776,-3.7779,-3.7781,-3.7876,-3.7876,-3.8008,-3.801,0,0,0,0,0,0,0,0,0,0,0,-3.7758,-3.776,-3.7761,-3.7782,-3.7876,-3.7876,-3.8008,-3.7932,0,0,0,0,0,0,0,0,0,0,-3.7838,-3.7828,-3.7759,-3.7761,-3.7782,-3.7876,-3.7876,-3.7928,-3.7937,-3.797,0,-3.8004,0,-3.8009,-3.8019,-3.802,0,0,0,-3.7775,-3.7821,-3.7839,-3.7761,-3.7783,-3.7876,-3.7831,-3.7933,-3.7943,-3.7982,-3.8005,-3.801,-3.8011,-3.802,-3.8021,-3.8238,-3.824,0,0,-3.777,-3.778,-3.7832,-3.7846,-3.7833,-3.7828,-3.7834,-3.7938,-3.7964,-3.8006,-3.8013,-3.8013,-3.8021,-3.8022,-3.8237,-3.8239,0,0,0,-3.7759,-3.7776,-3.7792,-3.7841,-3.7857,-3.7831,-3.7838,-3.796,-3.7964,-3.8014,-3.8015,-3.8022,-3.8024,-3.8236,-3.8238,-3.8311,0,0,0,-3.7756,-3.777,-3.779,-3.7797,-3.7855,-3.791,-3.7857,-3.7957,-3.7968,-3.8014,-3.8022,-3.8025,-3.8234,-3.8237,-3.8306,-3.8344,0,0,0,-3.775,-3.7769,-3.7786,-3.7797,-3.7839,-3.7908,-3.7918,-3.7959,-3.7969,-3.802,-3.8025,-3.8233,-3.8236,-3.8302,-3.8336,-3.8403,0,0,0,-3.7746,-3.785,-3.7787,-3.7904,-3.7838,-3.7954,-3.7917,-3.8003,-3.8055,-3.8023,-3.8234,-3.8237,-3.83,-3.8332,-3.8398,-3.8459,-3.8487,0,0,-3.7883,-3.7867,-3.7935,-3.7881,-3.801,-3.7938,-3.8078,-3.8116,-3.8112,-3.8196,-3.8201,-3.8308,-3.8336,-3.8402,-3.8638,-3.8659,0,0,0,-3.7981,-3.803,-3.8062,-3.8113,-3.8145,-3.8175,-3.8192,-3.8206,-3.8277,-3.8158,-3.8351,-3.8367,-3.8405,-3.8434,-3.8452,-3.8483,-3.8252,-3.8251,-3.8251,-3.8187,-3.8177,-3.8287,-3.8288,-3.8338,-3.8353,-3.8392,-3.8414,-3.8388,-3.8434,-3.8458,-3.8603,-3.8637,-3.8651,-3.8683,-3.8491,-3.8492,-3.8492,-3.8492,-3.8385,-3.8451,-3.8415,-3.8509,-3.8497,-3.8576,-3.8595,-3.8574,-3.8644,-3.8584,-3.8617,-3.855,-3.8675,-3.8703,-3.8497,-3.8496,-3.8496,-3.8495,-3.8495,-3.8517,-3.8547,-3.8563,-3.8635,-3.8692,-3.8689,-3.8758,-3.8745,-3.8732,-3.8765,-3.8788,-3.8787,-3.8782,-3.8778,-3.8778,-3.8779,-3.8779,-3.878,-3.878,-3.8647,-3.8663,-3.8724,-3.8767,-3.8798,-3.8836,-3.8853,-3.8882,-3.8911,-3.8895,-3.8896,-3.8864,-3.869,-3.8645,-3.8788,-3.8786,-3.8785,-3.8785,-3.8784,-3.8848,-3.88,-3.8894,-3.8925,-3.8974,-3.903,-3.9013,-3.9074,-3.9096,-3.913,-3.9093,-3.8967,-3.8949,-3.8934,-3.8897,-3.9096,-3.9096,-3.9096,-3.9096,-3.8958,-3.8949,-3.9041,-3.909,-3.9138,-3.9132,-3.9236,-3.925,-3.9257,-3.9269,-3.9239,-3.9189,-3.9175,-3.9166,-3.9146,-3.9111,-3.936,-3.936,-3.936,-3.908,-3.9075,-3.9167,-3.9174,-3.9211,-3.9243,-3.9341,-3.9398,-3.9396,-3.9371,-3.9279,-3.9267,-3.9187,-3.9162,-3.9132,-3.9102,-3.9037,0,0]},{"header":{"parameterUnit":"m.s-1","parameterCategory":1,"la1":30.2992,"la2":30.254,"lo1":-89.0895,"lo2":-89.0443,"dy":0.0025,"dx":0.0025,"nx":19,"ny":19,"refTime":"2026-04-21T21:00:00:Z","depth":0,"parameterNumber":3,"parameterNumberName":"V-component_of_WINDS"},"data":[0,0,0,2.8055,2.8061,2.8329,2.833,2.865,2.8653,0,0,0,0,0,0,0,0,0,0,0,2.796,2.7961,2.8055,2.8061,2.8329,2.833,2.865,2.8653,0,0,0,0,0,0,0,0,0,0,0,2.7959,2.7961,2.7963,2.8062,2.8328,2.833,2.8649,2.8456,0,0,0,0,0,0,0,0,0,0,2.8199,2.8094,2.796,2.7963,2.8063,2.8328,2.833,2.8447,2.8468,2.8518,0,2.8557,0,2.861,2.8673,2.8674,0,0,0,2.8074,2.8077,2.8164,2.7963,2.8066,2.8328,2.8212,2.8459,2.8482,2.8546,2.8562,2.8574,2.8615,2.8674,2.8676,2.8924,2.8924,0,0,2.8059,2.7999,2.8147,2.8178,2.8133,2.8203,2.822,2.8473,2.8487,2.8563,2.8582,2.862,2.8676,2.8679,2.8923,2.8924,0,0,0,2.8008,2.7988,2.807,2.8164,2.8214,2.821,2.823,2.8476,2.8508,2.8586,2.8624,2.8678,2.8682,2.8923,2.8924,2.8895,0,0,0,2.8,2.7959,2.8063,2.8029,2.8209,2.8348,2.8226,2.849,2.852,2.8622,2.8678,2.8685,2.8922,2.8923,2.8894,2.8891,0,0,0,2.7948,2.7953,2.7986,2.8025,2.8138,2.8345,2.8392,2.8498,2.8543,2.8674,2.8685,2.8922,2.8923,2.8894,2.8891,2.8941,0,0,0,2.7876,2.7955,2.7984,2.8089,2.8135,2.8324,2.8391,2.8535,2.8643,2.868,2.8922,2.8923,2.8894,2.889,2.894,2.8973,2.8981,0,0,2.7943,2.7961,2.8027,2.8062,2.823,2.8288,2.8454,2.861,2.8677,2.8838,2.8845,2.8894,2.8891,2.8941,2.9043,2.9048,0,0,0,2.8029,2.8076,2.8133,2.8234,2.8354,2.8459,2.8596,2.8655,2.8795,2.8747,2.8927,2.8927,2.8959,2.8978,2.8983,2.9015,2.8929,2.8929,2.8929,2.8038,2.8121,2.8237,2.8353,2.8449,2.8591,2.8679,2.8783,2.8836,2.8878,2.8926,2.8978,2.8998,2.9002,2.9035,2.8949,2.8949,2.8949,2.8949,2.8146,2.8227,2.8299,2.8438,2.8526,2.8644,2.8786,2.8821,2.8946,2.8947,2.898,2.8975,2.9005,2.9039,2.8948,2.8948,2.8948,2.8948,2.8949,2.8163,2.8217,2.8286,2.8443,2.8554,2.867,2.8787,2.8863,2.8935,2.8967,2.9029,2.9029,2.9042,2.8991,2.8991,2.8991,2.8991,2.8991,2.8991,2.8153,2.8234,2.8322,2.8459,2.8536,2.8646,2.8792,2.8871,2.8977,2.9023,2.9024,2.9076,2.8992,2.897,2.8995,2.8994,2.8994,2.8993,2.8993,2.8235,2.8229,2.8366,2.8442,2.8613,2.8721,2.8816,2.897,2.9046,2.9102,2.9148,2.9073,2.9097,2.9094,2.9077,2.9128,2.9128,2.9128,2.9128,2.825,2.827,2.8429,2.8547,2.8672,2.8773,2.893,2.9046,2.9165,2.9218,2.9222,2.9205,2.9198,2.9227,2.9221,2.9206,2.9289,2.9289,2.9289,2.8307,2.8342,2.8459,2.8574,2.8714,2.8833,2.8984,2.912,2.9253,2.9297,2.9262,2.9255,2.9229,2.9216,2.9258,2.9247,2.9221,0,0]}]]